Location: Claflin County Park
(44.8478°N, 87.5507°W)
Time: 07:28:37
(UTC+00:00)

USA 234 - Pass Details

Date: 16 March 2026
Orbit: 1102 x 1106 km, 123.0° (Epoch: 4 January)

Event Time Altitude Azimuth Distance (km) Brightness Sun altitude
Exits shadow 01:14:10 11° 65° (ENE) 2,857 5.0 -14.5°
Maximum altitude 01:19:26 32° 7° (N) 1,808 4.4 -15.4°
Drops below altitude 10° 01:25:04 10° 308° (NW) 2,970 6.6 -16.4°
Sets 01:27:49 0° 299° (WNW) 3,929 7.7 -16.9°
